Regional Weather Roundup
Issued by NWS

Home | Current Version | Previous Version | Text Only | Print | Product List | Glossary On
Versions: 1 2 3 4 5 6 7 8 9 10 11 12 13 14 15 16 17 18 19 20 21 22 23 24 25 26 27 28 29 30 31 32 33 34 35 36 37 38 39 40 41 42 43 44 45 46 47 48 49 50
000
ASUS43 KLOT 271008
RWRIL

ILLINOIS REGIONAL WEATHER ROUNDUP
NATIONAL WEATHER SERVICE CHICAGO/ROMEOVILLE IL
400 AM CST MON FEB 27 2017

NOTE: "FAIR" INDICATES FEW OR NO CLOUDS BELOW 12,000 FEET WITH NO
SIGNIFICANT WEATHER AND/OR OBSTRUCTIONS TO VISIBILITY.

* THESE STATIONS ARE NOT UNDER NWS QUALITY CONTROL. THEY ALSO MAY NOT
  REPORT WEATHER SUCH AS PRECIPITATION OR FOG.

ILZ001-002-007-009-015-016-024-271100-
NORTHWEST ILLINOIS

CITY           SKY/WX    TMP DP  RH WIND       PRES   REMARKS
MOLINE         PTCLDY    30  25  81 S3        30.06F
STERLING*      CLEAR     28  27  96 CALM      30.09S
$$

ILZ003-004-008-010-011-017-018-271100-
NORTH CENTRAL ILLINOIS

CITY           SKY/WX    TMP DP  RH WIND       PRES   REMARKS
ROCKFORD       PTCLDY    27  23  85 CALM      30.10S
FREEPORT*      MOCLDY    26  24  93 E3        30.09R
ROCHELLE*      CLEAR     29  28  97 CALM      30.09R
DE KALB*       CLEAR     29  28  94 CALM      30.09S
PERU*          PTCLDY    31  26  84 S6        30.10S WCI  25
$$

ILZ005-006-012>014-019>023-271100-
NORTHEAST ILLINOIS

CITY           SKY/WX    TMP DP  RH WIND       PRES   REMARKS
CHICAGO-OHARE  PTCLDY    27  22  81 S3        30.10R
CHICAGO-MIDWAY MOCLDY    34  24  67 S6        30.11S WCI  29
AURORA         CLOUDY    31  24  75 SE5       30.10S WCI  26
LANSING*       PTCLDY    29  26  89 S6        30.13S WCI  22
JOLIET*        CLOUDY    32  28  86 CALM      30.12S
WAUKEGAN       PTCLDY    28  26  92 SW3       30.09R FOG
DUPAGE AIRPORT CLOUDY    28  22  78 S6        30.09S WCI  22
KANKAKEE*      CLEAR     28  24  84 CALM      30.14S
WHEELING       CLEAR     28  23  81 CALM      30.11S
MORRIS*        CLOUDY    32  27  81 CALM      30.11S
ROMEOVILLE*    MOCLDY    30  28  92 S6        30.11S WCI  24
NORTHERLY ISL    N/A     36  24  62 S6          N/A  WCI  31
$$

LMZ740>746-271100-
SOUTHERN LAKE MICHIGAN

STATION/POSITION SKY/WX   TEMP    WIND        PRES    VSBY  WAVE
                          AIR SEA DIR/SP/G                  HT/PER
                          (F)     (DEG/KT/KT) (MB)    (MI)  (FT/S)
HARRISON CRIB              40     220/ 11/ 13   N/A
BURNHAM HARBOR             36     220/  3/  7   N/A
CALUMET HARBOR             34     210/  6/  8 1019.2F
BURNS HARBOR               38     220/ 12/ 19 1020.7R
MICHIGAN CITY              36     190/ 13/ 15   N/A
$$

ILZ025>027-034>036-040-047-049-050-058-095>099-271100-
WEST-CENTRAL ILLINOIS

CITY           SKY/WX    TMP DP  RH WIND       PRES   REMARKS
QUINCY         CLOUDY    33  32  96 SE5       30.07F WCI  29
GALESBURG*     PTCLDY    29  27  92 S5          N/A  WCI  24
MACOMB*        CLEAR     26  26  97 CALM      30.10S
JACKSONVILLE*  CLOUDY    32  30  92 E5        30.10S WCI  27
PITTSFIELD*    CLOUDY    34  33  95 CALM      30.10R
$$

ILZ028>032-037-038-041>044-048-051>054-059>061-271100-
CENTRAL ILLINOIS

CITY           SKY/WX    TMP DP  RH WIND       PRES   REMARKS
PONTIAC        CLEAR     27  26  96 CALM      30.13S
BLOOMINGTON    CLEAR     27  25  92 S3        30.12S
DECATUR        MIX PCPN  38  34  85 CALM      30.11F
PEORIA         CLEAR     29  25  85 S5        30.11S WCI  24
LACON*         CLEAR     32  28  85 SE3       30.10S
LINCOLN*       PTCLDY    28  27  93 CALM      30.12S
SPRINGFIELD    CLOUDY    33  30  88 SE3       30.11S
TAYLORVILLE    MOCLDY    36  33  91 N5        30.11R WCI  32
$$

ILZ033-039-045-046-055>057-062-063-271100-
EAST-CENTRAL ILLINOIS

CITY           SKY/WX    TMP DP  RH WIND       PRES   REMARKS
CHAMPAIGN      CLOUDY    33  27  78 E6        30.13S WCI  28
RANTOUL*       CLEAR     30  26  82 SE3       30.13F
MATTOON        CLOUDY    40  34  79 SE8       30.12S
PARIS*         CLOUDY    39  35  85 E5        30.15F
$$

ILZ079-100>102-271100-
SOUTHWEST ILLINOIS

CITY           SKY/WX    TMP DP  RH WIND       PRES   REMARKS
ALTON          CLOUDY    39  35  86 E3        30.10S
BELLEVILLE     MOCLDY    40  36  85 E3        30.08F
CAHOKIA*       MOCLDY    39  33  79 CALM      30.09S
SPARTA*        CLEAR     40  32  71 SE6       30.10S
$$

ILZ064>066-069>071-074>076-080>082-084>086-088>090-092>094-271100-
SOUTH-CENTRAL ILLINOIS

CITY           SKY/WX    TMP DP  RH WIND       PRES   REMARKS
CARBONDALE     CLOUDY    42  37  82 SE6       30.11S
CAIRO*         CLOUDY    45  41  88 E5        30.12R
EFFINGHAM*     CLOUDY    41  36  84 E6        30.14S
MARION         CLOUDY    43  43 100 SE7       30.12S
MT. VERNON     CLOUDY    44  35  70 SE5       30.12F
CENTRALIA*     CLOUDY    43  34  71 E3        30.10S
SALEM*         CLOUDY    44  33  65 E3        30.12S
METROPOLIS*    RAIN      44  40  88 CALM      30.13S
$$

ILZ067-068-072-073-078-083-087-091-271100-
SOUTHEAST ILLINOIS

CITY           SKY/WX    TMP DP  RH WIND       PRES   REMARKS
LAWRENCEVILLE  CLOUDY    43  35  73 E7        30.16F
FLORA*         CLOUDY    43  36  75 SE6       30.15R
FAIRFIELD*     CLOUDY    44  35  69 CALM      30.13S
HARRISBURG*    CLOUDY    42  38  85 E3        30.15S
ROBINSON*      CLOUDY    40  34  79 SE6       30.16F
CARMI*         CLOUDY    42  38  84 SE6       30.15S
$$

ABBREVIATIONS USED IN REMARKS
   TC - TEMPERATURE IN CELSIUS
  WCI - WIND CHILL INDEX
   HX - HEAT INDEX
  VSB - VISIBILITY
$$





USA.gov is the U.S. government's official web portal to all federal, state and local government web resources and services.